User: anonymous   Login
Location: *
(49.9853°N, 3.5569°E)
Time: 13:16:52
(UTC+00:00)
Language:

ARGOS - Orbit

View from above orbital plane
View from above orbital plane
View from above satellite
View from above satellite

Ground track
Ground track

The orbit data is extracted from the following two-line orbital elements,

1 25634U 99008A   19317.76608909 -.00000005 +00000-0 +17263-4 0  9991
2 25634 098.4946 000.8085 0010221 179.6800 180.4385 14.19361545072748
Epoch (UTC): 13 November 2019 18:23:10
Eccentricity: 0.0010221
inclination: 98.4946°
perigee height: 820 km
apogee height: 835 km
right ascension of ascending node: 0.8085°
argument of perigee: 179.6800°
revolutions per day: 14.19361545
mean anomaly at epoch: 180.4385°
orbit number at epoch: 7274

The dashed part of the orbit path shows where the satellite is in the earth's shadow,  

DLR